Location: Clarion
(42.7316°N, 93.7330°W)
Time: 09:23:58
(UTC+00:00)

NOSS 3-3 (C) - Pass Details

Date: 22 April 2026
Orbit: 697 x 1516 km, 63.4° (Epoch: 11 January)

Event Time Altitude Azimuth Distance (km) Brightness Sun altitude
Exits shadow 08:40:11 54° 286° (WNW) 989 3.8 -25.6°
Maximum altitude 08:40:45 57° 312° (NW) 973 3.9 -25.5°
Drops below altitude 10° 08:46:46 10° 31° (NNE) 2,688 7.3 -24.8°
Sets 08:49:40 0° 35° (NE) 3,770 8.5 -24.4°
